| time (UTC) | temp F | wind direction | speed knots | gust knots | rain 1hr in | rain 24hr in | rain mn in | humidity % | barometer mb |
| 20260507073339 | 70 | 163 | 1.7 | 4.3 | 0.04 | 0.35 | 0.06 | 94 | 1012.1 |
| 20260507072316 | 70 | 178 | 1.7 | 3.5 | 0.04 | 0.35 | 0.06 | 93 | 1012.4 |
| 20260507071330 | 70 | 253 | 2.6 | 4.3 | 0.00 | 0.31 | 0.05 | 93 | 1012.6 |
| 20260507070332 | 70 | 216 | 1.7 | 3.5 | 0.00 | 0.31 | 0.05 | 93 | 1012.7 |
| 20260507065333 | 70 | 170 | 1.7 | 3.5 | 0.00 | 0.31 | 0.05 | 93 | 1012.6 |
| 20260507064313 | 70 | 153 | 0.9 | 4.3 | 0.00 | 0.31 | 0.05 | 93 | 1012.3 |
| 20260507063330 | 70 | 155 | 1.7 | 3.5 | 0.00 | 0.31 | 0.05 | 93 | 1012.5 |
| 20260507062323 | 70 | 133 | 1.7 | 4.3 | 0.00 | 0.31 | 0.05 | 93 | 1012.7 |
| 20260507061315 | 70 | 159 | 2.6 | 4.3 | 0.00 | 0.31 | 0.05 | 92 | 1012.7 |
| 20260507060316 | 70 | 136 | 2.6 | 4.3 | 0.04 | 0.31 | 0.05 | 92 | 1012.4 |
| 20260507055350 | 70 | 148 | 1.7 | 3.5 | 0.08 | 0.31 | 0.05 | 92 | 1012.4 |
| 20260507054322 | 70 | 65 | 0.9 | 4.3 | 0.20 | 0.31 | 0.05 | 92 | 1012.4 |
| 20260507053322 | 71 | 145 | 1.7 | 3.5 | 0.20 | 0.31 | 0.05 | 92 | 1012.9 |
| 20260507052311 | 71 | 73 | 1.7 | 3.5 | 0.20 | 0.31 | 0.05 | 91 | 1013.0 |
| 20260507051329 | 71 | 184 | 1.7 | 4.3 | 0.20 | 0.31 | 0.05 | 91 | 1013.8 |
| 20260507050325 | 71 | 144 | 2.6 | 4.3 | 0.16 | 0.28 | 0.04 | 90 | 1013.9 |
| 20260507045316 | 71 | 132 | 2.6 | 5.2 | 0.16 | 0.24 | 0.03 | 90 | 1013.8 |
| 20260507044327 | 72 | 148 | 2.6 | 4.3 | 0.04 | 0.12 | 0.00 | 89 | 1014.1 |
| 20260507043326 | 72 | 185 | 1.7 | 3.5 | 0.04 | 0.12 | 0.00 | 89 | 1013.9 |
| 20260507042317 | 72 | 211 | 1.7 | 3.5 | 0.04 | 0.12 | 0.00 | 88 | 1013.8 |
| 20260507041310 | 72 | 200 | 1.7 | 2.6 | 0.12 | 0.12 | 0.00 | 88 | 1013.6 |
| 20260507040308 | 72 | 237 | 0.9 | 2.6 | 0.12 | 0.12 | 0.00 | 88 | 1013.4 |
| 20260507035321 | 73 | 155 | 1.7 | 3.5 | 0.08 | 0.08 | 0.02 | 85 | 1013.2 |
| 20260507034321 | 73 | 197 | 1.7 | 2.6 | 0.08 | 0.08 | 0.02 | 83 | 1013.4 |
| 20260507033317 | 74 | 148 | 0.9 | 5.2 | 0.08 | 0.08 | 0.02 | 81 | 1013.3 |
| 20260507032318 | 75 | 184 | 2.6 | 4.3 | 0.04 | 0.04 | 0.01 | 77 | 1013.9 |
| 20260507031318 | 76 | 170 | 1.7 | 6.1 | 0.00 | 0.00 | 0.00 | 72 | 1014.2 |
| 20260507030320 | 76 | 132 | 3.5 | 6.1 | 0.00 | 0.00 | 0.00 | 69 | 1013.8 |
| 20260507025314 | 76 | 190 | 2.6 | 4.3 | 0.00 | 0.00 | 0.00 | 70 | 1013.6 |
| 20260507024311 | 76 | 196 | 0.9 | 4.3 | 0.00 | 0.00 | 0.00 | 70 | 1013.1 |
| 20260507023313 | 76 | 113 | 1.7 | 5.2 | 0.00 | 0.00 | 0.00 | 70 | 1013.2 |
| 20260507022309 | 76 | 159 | 2.6 | 4.3 | 0.00 | 0.00 | 0.00 | 69 | 1013.0 |
| 20260507021311 | 76 | 120 | 0.9 | 3.5 | 0.00 | 0.00 | 0.00 | 69 | 1013.1 |
| 20260507020328 | 77 | 153 | 1.7 | 6.1 | 0.00 | 0.00 | 0.00 | 68 | 1013.1 |
| 20260507015332 | 77 | 146 | 2.6 | 4.3 | 0.00 | 0.00 | 0.00 | 69 | 1013.1 |
| 20260507014325 | 77 | 152 | 2.6 | 4.3 | 0.00 | 0.00 | 0.00 | 68 | 1013.1 |
| 20260507013327 | 77 | 136 | 2.6 | 5.2 | 0.00 | 0.00 | 0.00 | 68 | 1013.1 |
| 20260507012323 | 77 | 150 | 1.7 | 4.3 | 0.00 | 0.00 | 0.00 | 67 | 1013.3 |
| 20260507011320 | 78 | 146 | 2.6 | 4.3 | 0.00 | 0.00 | 0.00 | 67 | 1013.1 |
| 20260507010321 | 78 | 128 | 1.7 | 7.0 | 0.00 | 0.00 | 0.00 | 66 | 1013.1 |
| 20260507005317 | 78 | 158 | 1.7 | 5.2 | 0.00 | 0.00 | 0.00 | 65 | 1013.1 |
| 20260507004313 | 79 | 163 | 3.5 | 5.2 | 0.00 | 0.00 | 0.00 | 65 | 1013.2 |
| 20260507003335 | 79 | 191 | 2.6 | 5.2 | 0.00 | 0.00 | 0.00 | 64 | 1013.1 |
| 20260507002319 | 80 | 191 | 2.6 | 5.2 | 0.00 | 0.00 | 0.00 | 63 | 1013.2 |
| 20260507001314 | 80 | 164 | 2.6 | 7.8 | 0.00 | 0.00 | 0.00 | 63 | 1013.2 |
| 20260507000309 | 80 | 266 | 2.6 | 7.8 | 0.00 | 0.00 | 0.00 | 62 | 1013.1 |
| 20260506235309 | 81 | 180 | 3.5 | 7.0 | 0.00 | 0.00 | 0.00 | 61 | 1012.9 |
| 20260506234353 | 81 | 99 | 2.6 | 7.0 | 0.00 | 0.00 | 0.00 | 60 | 1012.8 |
| 20260506233327 | 82 | 194 | 4.3 | 8.7 | 0.00 | 0.00 | 0.00 | 60 | 1012.7 |
| 20260506232324 | 82 | 163 | 3.5 | 8.7 | 0.00 | 0.00 | 0.00 | 59 | 1012.8 |
| 20260506231328 | 83 | 232 | 3.5 | 9.6 | 0.00 | 0.00 | 0.00 | 58 | 1012.8 |
| 20260506230343 | 83 | 196 | 5.2 | 8.7 | 0.00 | 0.00 | 0.00 | 57 | 1013.0 |
| 20260506225324 | 84 | 170 | 4.3 | 10.4 | 0.00 | 0.00 | 0.00 | 57 | 1012.8 |
| 20260506224346 | 83 | 173 | 3.5 | 7.8 | 0.00 | 0.00 | 0.00 | 58 | 1012.7 |
| 20260506223320 | 83 | 155 | 4.3 | 9.6 | 0.00 | 0.00 | 0.00 | 58 | 1012.7 |
| 20260506222316 | 83 | 190 | 3.5 | 9.6 | 0.00 | 0.00 | 0.00 | 57 | 1012.6 |
| 20260506221319 | 83 | 101 | 3.5 | 8.7 | 0.00 | 0.00 | 0.00 | 57 | 1012.6 |
| 20260506220314 | 84 | 180 | 4.3 | 8.7 | 0.00 | 0.00 | 0.00 | 56 | 1012.5 |
| 20260506215334 | 84 | 166 | 3.5 | 12.2 | 0.00 | 0.00 | 0.00 | 56 | 1012.6 |
| 20260506214309 | 84 | 130 | 6.1 | 12.2 | 0.00 | 0.00 | 0.00 | 55 | 1012.8 |
| 20260506213309 | 85 | 134 | 4.3 | 13.0 | 0.00 | 0.00 | 0.00 | 55 | 1012.9 |
| 20260506212330 | 85 | 175 | 6.1 | 10.4 | 0.00 | 0.00 | 0.00 | 55 | 1013.0 |
| 20260506211324 | 85 | 135 | 7.0 | 15.6 | 0.00 | 0.00 | 0.00 | 56 | 1012.8 |
| 20260506210320 | 85 | 247 | 3.5 | 10.4 | 0.00 | 0.00 | 0.00 | 56 | 1012.7 |
| 20260506205320 | 84 | 189 | 4.3 | 9.6 | 0.00 | 0.00 | 0.00 | 57 | 1012.7 |
| 20260506204316 | 83 | 152 | 6.1 | 16.5 | 0.00 | 0.00 | 0.00 | 58 | 1012.8 |
| 20260506203334 | 82 | 111 | 2.6 | 10.4 | 0.00 | 0.00 | 0.00 | 60 | 1012.9 |
| 20260506202309 | 82 | 143 | 4.3 | 12.2 | 0.00 | 0.00 | 0.00 | 60 | 1013.2 |
| 20260506201322 | 81 | 140 | 2.6 | 4.3 | 0.00 | 0.00 | 0.00 | 62 | 1013.0 |
| 20260506200324 | 81 | 161 | 2.6 | 5.2 | 0.00 | 0.00 | 0.00 | 61 | 1012.4 |
| 20260506195313 | 82 | 191 | 3.5 | 11.3 | 0.00 | 0.00 | 0.00 | 60 | 1013.5 |
| 20260506194309 | 82 | 258 | 3.5 | 13.9 | 0.00 | 0.00 | 0.00 | 58 | 1014.4 |
| 20260506193324 | 83 | 224 | 7.0 | 12.2 | 0.00 | 0.00 | 0.00 | 58 | 1014.6 |
| 20260506192325 | 83 | 196 | 4.3 | 13.0 | 0.00 | 0.00 | 0.00 | 57 | 1014.6 |
| 20260506191319 | 83 | 224 | 6.1 | 9.6 | 0.00 | 0.00 | 0.00 | 58 | 1014.6 |
| 20260506190314 | 83 | 242 | 4.3 | 12.2 | 0.00 | 0.00 | 0.00 | 58 | 1014.6 |
| 20260506185315 | 83 | 202 | 6.1 | 14.8 | 0.00 | 0.00 | 0.00 | 57 | 1014.7 |
| 20260506184311 | 84 | 251 | 5.2 | 9.6 | 0.00 | 0.00 | 0.00 | 55 | 1014.9 |
| 20260506183332 | 84 | 134 | 6.1 | 12.2 | 0.00 | 0.00 | 0.00 | 55 | 1015.0 |
| 20260506182327 | 85 | 283 | 6.1 | 13.9 | 0.00 | 0.00 | 0.00 | 55 | 1015.2 |
| 20260506181324 | 84 | 199 | 4.3 | 13.9 | 0.00 | 0.00 | 0.00 | 57 | 1015.1 |
| 20260506180317 | 84 | 249 | 4.3 | 13.0 | 0.00 | 0.00 | 0.00 | 57 | 1015.4 |
| 20260506175312 | 84 | 114 | 5.2 | 13.9 | 0.00 | 0.00 | 0.00 | 59 | 1015.1 |
| 20260506174316 | 83 | 167 | 4.3 | 11.3 | 0.00 | 0.00 | 0.00 | 61 | 1015.5 |
| 20260506173323 | 82 | 170 | 4.3 | 8.7 | 0.00 | 0.00 | 0.00 | 61 | 1015.5 |
| 20260506172313 | 82 | 133 | 4.3 | 8.7 | 0.00 | 0.00 | 0.00 | 61 | 1015.8 |
| 20260506171312 | 81 | 156 | 6.1 | 14.8 | 0.00 | 0.00 | 0.00 | 60 | 1015.8 |
| 20260506170319 | 82 | 156 | 3.5 | 8.7 | 0.00 | 0.00 | 0.00 | 59 | 1015.8 |
| 20260506165316 | 82 | 205 | 3.5 | 16.5 | 0.00 | 0.00 | 0.00 | 60 | 1015.9 |
| 20260506164336 | 82 | 152 | 5.2 | 11.3 | 0.00 | 0.00 | 0.00 | 60 | 1015.9 |
| 20260506163329 | 80 | 144 | 2.6 | 7.8 | 0.00 | 0.00 | 0.00 | 63 | 1015.7 |
| 20260506162323 | 80 | 209 | 5.2 | 11.3 | 0.00 | 0.00 | 0.00 | 61 | 1015.7 |
| 20260506161325 | 80 | 211 | 3.5 | 13.0 | 0.00 | 0.00 | 0.00 | 62 | 1015.9 |
| 20260506160315 | 80 | 155 | 7.0 | 13.9 | 0.00 | 0.00 | 0.00 | 62 | 1016.0 |
| 20260506155332 | 79 | 140 | 4.3 | 13.0 | 0.00 | 0.00 | 0.00 | 63 | 1015.9 |
| 20260506154324 | 78 | 166 | 4.3 | 11.3 | 0.00 | 0.00 | 0.00 | 64 | 1015.9 |
| 20260506153322 | 78 | 153 | 3.5 | 10.4 | 0.00 | 0.00 | 0.00 | 64 | 1015.8 |
| 20260506152317 | 77 | 147 | 4.3 | 13.9 | 0.00 | 0.00 | 0.00 | 63 | 1015.3 |
| 20260506151310 | 77 | 137 | 6.1 | 14.8 | 0.00 | 0.00 | 0.00 | 63 | 1015.8 |
| 20260506150309 | 77 | 142 | 6.1 | 10.4 | 0.00 | 0.00 | 0.00 | 63 | 1016.0 |
| 20260506145320 | 77 | 159 | 4.3 | 9.6 | 0.00 | 0.00 | 0.00 | 64 | 1016.1 |
| 20260506144319 | 76 | 177 | 5.2 | 12.2 | 0.00 | 0.00 | 0.00 | 65 | 1016.2 |
| 20260506143315 | 76 | 218 | 5.2 | 10.4 | 0.00 | 0.00 | 0.00 | 65 | 1016.2 |
| 20260506142313 | 75 | 161 | 3.5 | 10.4 | 0.00 | 0.00 | 0.00 | 66 | 1016.2 |
| 20260506141326 | 75 | 83 | 5.2 | 13.0 | 0.00 | 0.00 | 0.00 | 67 | 1016.4 |
| 20260506140324 | 75 | 213 | 2.6 | 7.8 | 0.00 | 0.00 | 0.00 | 68 | 1016.3 |
| 20260506135335 | 74 | 148 | 5.2 | 13.9 | 0.00 | 0.00 | 0.00 | 68 | 1016.4 |
| 20260506134312 | 74 | 219 | 5.2 | 10.4 | 0.00 | 0.00 | 0.00 | 69 | 1016.6 |
| 20260506133325 | 73 | 161 | 3.5 | 7.8 | 0.00 | 0.00 | 0.00 | 71 | 1016.6 |
| 20260506132316 | 72 | 145 | 3.5 | 8.7 | 0.00 | 0.00 | 0.00 | 72 | 1016.8 |
| 20260506131338 | 72 | 207 | 3.5 | 12.2 | 0.00 | 0.00 | 0.00 | 72 | 1016.7 |
| 20260506130330 | 72 | 192 | 4.3 | 7.8 | 0.00 | 0.00 | 0.00 | 72 | 1016.6 |
| 20260506125325 | 71 | 197 | 2.6 | 7.0 | 0.00 | 0.00 | 0.00 | 75 | 1016.2 |
| 20260506124342 | 71 | 175 | 2.6 | 7.8 | 0.00 | 0.00 | 0.00 | 76 | 1016.1 |
| 20260506123314 | 70 | 108 | 4.3 | 7.8 | 0.00 | 0.00 | 0.00 | 76 | 1016.3 |
| 20260506122332 | 70 | 163 | 2.6 | 9.6 | 0.00 | 0.00 | 0.00 | 76 | 1016.1 |
| 20260506121348 | 69 | 209 | 2.6 | 7.0 | 0.00 | 0.00 | 0.00 | 77 | 1016.0 |
| 20260506120317 | 69 | 231 | 4.3 | 8.7 | 0.00 | 0.00 | 0.00 | 78 | 1015.9 |
| 20260506115328 | 68 | 152 | 2.6 | 6.1 | 0.00 | 0.00 | 0.00 | 79 | 1016.0 |
| 20260506114323 | 67 | 167 | 3.5 | 8.7 | 0.00 | 0.00 | 0.00 | 80 | 1015.8 |
| 20260506113322 | 66 | 161 | 5.2 | 9.6 | 0.00 | 0.00 | 0.00 | 81 | 1015.6 |
| 20260506112316 | 66 | 174 | 3.5 | 7.0 | 0.00 | 0.00 | 0.00 | 81 | 1015.7 |
| 20260506111311 | 65 | 161 | 3.5 | 8.7 | 0.00 | 0.00 | 0.00 | 82 | 1015.7 |
| 20260506110334 | 65 | 135 | 2.6 | 7.8 | 0.00 | 0.00 | 0.00 | 82 | 1015.6 |
| 20260506105309 | 65 | 140 | 2.6 | 8.7 | 0.00 | 0.00 | 0.00 | 82 | 1015.6 |
| 20260506104311 | 65 | 112 | 3.5 | 9.6 | 0.00 | 0.00 | 0.00 | 83 | 1015.6 |
| 20260506103332 | 64 | 47 | 4.3 | 8.7 | 0.00 | 0.00 | 0.00 | 84 | 1015.4 |
| 20260506102324 | 64 | 111 | 3.5 | 7.8 | 0.00 | 0.00 | 0.00 | 85 | 1015.6 |
| 20260506101322 | 64 | 170 | 2.6 | 6.1 | 0.00 | 0.00 | 0.00 | 85 | 1015.8 |
| 20260506100345 | 64 | 212 | 1.7 | 4.3 | 0.00 | 0.00 | 0.00 | 85 | 1015.8 |
| 20260506095320 | 64 | 117 | 2.6 | 5.2 | 0.00 | 0.00 | 0.00 | 85 | 1015.9 |
| 20260506094323 | 64 | 81 | 2.6 | 5.2 | 0.00 | 0.00 | 0.00 | 85 | 1016.0 |
| 20260506093318 | 64 | 118 | 2.6 | 5.2 | 0.00 | 0.00 | 0.00 | 85 | 1016.1 |
| 20260506092312 | 64 | 185 | 3.5 | 6.1 | 0.00 | 0.00 | 0.00 | 86 | 1016.2 |
| 20260506091312 | 64 | 114 | 0.9 | 4.3 | 0.00 | 0.00 | 0.00 | 86 | 1016.1 |
| 20260506090309 | 64 | 184 | 1.7 | 3.5 | 0.00 | 0.00 | 0.00 | 86 | 1016.1 |
| 20260506085330 | 64 | 130 | 2.6 | 5.2 | 0.00 | 0.00 | 0.00 | 85 | 1015.9 |
| 20260506084310 | 64 | 148 | 1.7 | 4.3 | 0.00 | 0.00 | 0.00 | 85 | 1015.9 |
| 20260506083326 | 64 | 148 | 2.6 | 5.2 | 0.00 | 0.00 | 0.00 | 85 | 1016.0 |
| 20260506082327 | 64 | 178 | 2.6 | 6.1 | 0.00 | 0.00 | 0.00 | 85 | 1015.9 |
| 20260506081322 | 64 | 138 | 2.6 | 6.1 | 0.00 | 0.00 | 0.00 | 85 | 1015.9 |
| 20260506080316 | 64 | 185 | 2.6 | 4.3 | 0.00 | 0.00 | 0.00 | 84 | 1015.8 |